This demonstration page uses our WeatherBlox Daily Observations layout. Learn more.

Left ArrowRight Arrow

Hourly Observations for January 29, 2022

Temp ( °F °C ) Dew Point ( °F °C ) Humidity (%) Winds ( mph kmh ) Pressure ( in mb ) Visibility ( mi km ) Precip ( " mm )
12:53 am 00:53 Clear 35 1.7 23 -5 61 61 Calm 30.41 1030 10 16 0.00 0.00
1:53 am 01:53 Clear 35 1.7 24 -4.4 64 64 Calm 30.39 1029 10 16 0.00 0.00
2:53 am 02:53 Clear 33 0.6 24 -4.4 70 70 Calm 30.38 1029 10 16 0.00 0.00
3:53 am 03:53 Clear 33 0.6 25 -3.9 72 72 Calm 30.37 1029 10 16 0.00 0.00
4:53 am 04:53 Clear 37 2.8 27 -2.8 67 67 SW 6 9 30.36 1028 10 16 0.00 0.00
5:53 am 05:53 Clear 34 1.1 24 -4.4 67 67 Calm 30.36 1028 10 16 0.00 0.00
6:53 am 06:53 Clear 32 0 24 -4.4 73 73 Calm 30.36 1028 10 16 0.00 0.00
7:53 am 07:53 Sunny 37 2.8 24 -4.4 59 59 SSE 3 6 30.36 1028 10 16 0.00 0.00
8:53 am 08:53 Sunny 43 6.1 26 -3.3 51 51 VRB 5 7 30.36 1028 10 16 0.00 0.00
9:53 am 09:53 Sunny 46 7.8 25 -3.9 44 44 VRB 3 6 30.35 1028 10 16 0.00 0.00
10:53 am 10:53 Sunny 51 10.6 25 -3.9 36 36 SW 7 11 30.34 1027 10 16 0.00 0.00
11:53 am 11:53 Sunny 55 12.8 26 -3.3 33 33 WSW 3 6 30.31 1026 10 16 0.00 0.00
12:53 pm 12:53 Sunny 61 16.1 24 -4.4 24 24 WSW 6 9 30.26 1025 10 16 0.00 0.00
1:53 pm 13:53 Sunny 65 18.3 16 -8.9 15 15 WSW 9 15 30.21 1023 10 16 0.00 0.00
2:53 pm 14:53 Sunny 67 19.4 15 -9.4 13 13 W 12 19 30.18 1022 10 16 0.00 0.00
3:53 pm 15:53 Sunny 67 19.4 16 -8.9 14 14 WSW 10 17 30.16 1021 10 16 0.00 0.00
4:53 pm 16:53 Mostly Sunny 67 19.4 17 -8.3 15 15 W 7 11 30.14 1021 10 16 0.00 0.00
5:53 pm 17:53 Mostly Sunny 64 17.8 17 -8.3 16 16 WSW 6 9 30.12 1020 10 16 0.00 0.00
6:53 pm 18:53 Mostly Clear 61 16.1 19 -7.2 20 20 SSW 6 9 30.13 1020 10 16 0.00 0.00
7:53 pm 19:53 Clear 58 14.4 20 -6.7 23 23 SW 6 9 30.13 1020 10 16 0.00 0.00
8:53 pm 20:53 Clear 56 13.3 20 -6.7 24 24 SW 7 11 30.13 1020 10 16 0.00 0.00
9:53 pm 21:53 Clear 54 12.2 20 -6.7 26 26 SW 6 9 30.13 1020 10 16 0.00 0.00
10:53 pm 22:53 Clear 52 11.1 20 -6.7 28 28 SW 7 11 30.12 1020 10 16 0.00 0.00
11:53 pm 23:53 Clear 50 10 21 -6.1 32 32 SW 7 11 30.11 1020 10 16 0.00 0.00

Powered by AerisWeather